| time (UTC) | temp F | wind direction | speed knots | gust knots | rain 1hr in | rain 24hr in | rain mn in | humidity % | barometer mb |
| 20260507071553 | 57 | 105 | 1.7 | 4.3 | 0.00 | 0.16 | 0.00 | 88 | 1008.7 |
| 20260507071042 | 57 | 104 | 2.6 | 4.3 | 0.00 | 0.16 | 0.00 | 88 | 1008.7 |
| 20260507070542 | 57 | 120 | 3.5 | 4.3 | 0.00 | 0.16 | 0.00 | 88 | 1008.7 |
| 20260507070055 | 56 | 104 | 0.0 | 3.5 | 0.00 | 0.16 | 0.00 | 90 | 1008.7 |
| 20260507065541 | 56 | 108 | 1.7 | 3.5 | 0.00 | 0.17 | 0.00 | 89 | 1008.6 |
| 20260507065042 | 56 | 106 | 2.6 | 3.5 | 0.00 | 0.17 | 0.00 | 89 | 1008.6 |
| 20260507064557 | 56 | 96 | 0.9 | 1.7 | 0.00 | 0.17 | 0.00 | 89 | 1008.7 |
| 20260507064045 | 56 | 0 | 0.0 | 0.9 | 0.00 | 0.17 | 0.00 | 90 | 1008.7 |
| 20260507063543 | 55 | 0 | 0.0 | 0.9 | 0.00 | 0.17 | 0.00 | 90 | 1008.7 |
| 20260507063051 | 55 | 0 | 0.0 | 1.7 | 0.00 | 0.17 | 0.00 | 91 | 1008.8 |
| 20260507062541 | 55 | 0 | 0.0 | 1.7 | 0.00 | 0.17 | 0.00 | 91 | 1008.7 |
| 20260507062042 | 54 | 0 | 0.0 | 2.6 | 0.00 | 0.17 | 0.00 | 91 | 1008.8 |
| 20260507061551 | 54 | 25 | 0.9 | 2.6 | 0.00 | 0.17 | 0.00 | 90 | 1008.6 |
| 20260507061043 | 54 | 326 | 1.7 | 2.6 | 0.00 | 0.17 | 0.00 | 90 | 1008.5 |
| 20260507060544 | 54 | 65 | 0.0 | 0.9 | 0.00 | 0.17 | 0.00 | 90 | 1008.7 |
| 20260507060052 | 54 | 0 | 0.0 | 0.0 | 0.00 | 0.17 | 0.00 | 89 | 1008.7 |
| 20260507055542 | 54 | 0 | 0.0 | 0.0 | 0.00 | 0.16 | 0.00 | 89 | 1008.7 |
| 20260507055042 | 54 | 0 | 0.0 | 0.0 | 0.00 | 0.16 | 0.00 | 89 | 1008.8 |
| 20260507054551 | 54 | 0 | 0.0 | 0.9 | 0.00 | 0.16 | 0.00 | 89 | 1008.7 |
| 20260507054042 | 54 | 0 | 0.0 | 0.9 | 0.00 | 0.16 | 0.00 | 89 | 1008.6 |
| 20260507053542 | 54 | 67 | 0.0 | 0.9 | 0.00 | 0.16 | 0.00 | 90 | 1008.5 |
| 20260507053048 | 54 | 0 | 0.0 | 0.9 | 0.00 | 0.16 | 0.00 | 90 | 1008.5 |
| 20260507052542 | 54 | 0 | 0.0 | 0.9 | 0.00 | 0.16 | 0.00 | 91 | 1008.4 |
| 20260507052042 | 54 | 59 | 0.0 | 0.9 | 0.00 | 0.16 | 0.00 | 92 | 1008.3 |
| 20260507051549 | 54 | 58 | 0.0 | 0.9 | 0.00 | 0.16 | 0.00 | 93 | 1008.3 |
| 20260507051042 | 54 | 0 | 0.0 | 0.9 | 0.00 | 0.16 | 0.00 | 93 | 1008.2 |
| 20260507050546 | 54 | 58 | 0.0 | 0.9 | 0.00 | 0.16 | 0.00 | 93 | 1008.2 |
| 20260507050047 | 54 | 0 | 0.0 | 0.9 | 0.00 | 0.16 | 0.00 | 93 | 1008.2 |
| 20260507045542 | 54 | 86 | 0.0 | 0.9 | 0.00 | 0.16 | 0.00 | 93 | 1008.1 |
| 20260507045043 | 54 | 0 | 0.0 | 0.9 | 0.00 | 0.16 | 0.00 | 93 | 1008.0 |
| 20260507044551 | 54 | 0 | 0.0 | 0.9 | 0.00 | 0.16 | 0.00 | 93 | 1008.0 |
| 20260507044042 | 54 | 0 | 0.0 | 0.9 | 0.00 | 0.16 | 0.00 | 94 | 1008.0 |
| 20260507043542 | 54 | 0 | 0.0 | 0.9 | 0.00 | 0.16 | 0.00 | 94 | 1007.9 |
| 20260507043052 | 53 | 86 | 0.0 | 0.9 | 0.00 | 0.16 | 0.00 | 95 | 1008.0 |
| 20260507042542 | 53 | 0 | 0.0 | 0.0 | 0.00 | 0.16 | 0.00 | 94 | 1007.9 |
| 20260507042042 | 53 | 0 | 0.0 | 0.0 | 0.00 | 0.16 | 0.00 | 94 | 1007.9 |
| 20260507041551 | 53 | 0 | 0.0 | 0.9 | 0.00 | 0.16 | 0.00 | 94 | 1007.9 |
| 20260507041045 | 53 | 0 | 0.0 | 1.7 | 0.00 | 0.16 | 0.00 | 94 | 1007.8 |
| 20260507040542 | 53 | 89 | 0.0 | 1.7 | 0.00 | 0.16 | 0.00 | 94 | 1007.6 |
| 20260507040052 | 53 | 90 | 0.9 | 1.7 | 0.00 | 0.16 | 0.00 | 94 | 1007.7 |
| 20260507035543 | 53 | 0 | 0.0 | 0.0 | 0.00 | 0.17 | 0.00 | 94 | 1007.7 |
| 20260507035043 | 53 | 0 | 0.0 | 0.0 | 0.00 | 0.17 | 0.00 | 94 | 1007.7 |
| 20260507034549 | 53 | 0 | 0.0 | 0.0 | 0.00 | 0.17 | 0.00 | 94 | 1007.6 |
| 20260507034042 | 53 | 0 | 0.0 | 0.0 | 0.00 | 0.17 | 0.00 | 94 | 1007.6 |
| 20260507033542 | 53 | 0 | 0.0 | 0.0 | 0.00 | 0.17 | 0.00 | 94 | 1007.6 |
| 20260507033052 | 53 | 0 | 0.0 | 0.0 | 0.00 | 0.17 | 0.00 | 94 | 1007.5 |
| 20260507032545 | 53 | 0 | 0.0 | 0.0 | 0.00 | 0.17 | 0.00 | 94 | 1007.5 |
| 20260507032046 | 53 | 0 | 0.0 | 0.0 | 0.00 | 0.17 | 0.00 | 93 | 1007.4 |
| 20260507031551 | 53 | 0 | 0.0 | 0.0 | 0.00 | 0.17 | 0.00 | 93 | 1007.5 |
| 20260507031047 | 53 | 0 | 0.0 | 0.0 | 0.00 | 0.17 | 0.00 | 93 | 1007.6 |
| 20260507030542 | 53 | 0 | 0.0 | 0.0 | 0.00 | 0.17 | 0.00 | 93 | 1007.5 |
| 20260507030051 | 53 | 0 | 0.0 | 0.0 | 0.00 | 0.17 | 0.00 | 93 | 1007.6 |
| 20260507025546 | 53 | 0 | 0.0 | 0.0 | 0.00 | 0.22 | 0.00 | 92 | 1007.5 |
| 20260507025047 | 53 | 0 | 0.0 | 0.0 | 0.00 | 0.22 | 0.00 | 92 | 1007.5 |
| 20260507024602 | 53 | 0 | 0.0 | 0.0 | 0.00 | 0.22 | 0.00 | 92 | 1007.5 |
| 20260507024045 | 53 | 0 | 0.0 | 0.0 | 0.00 | 0.22 | 0.00 | 92 | 1007.5 |
| 20260507023549 | 53 | 0 | 0.0 | 0.0 | 0.00 | 0.22 | 0.00 | 92 | 1007.5 |
| 20260507023052 | 53 | 0 | 0.0 | 0.0 | 0.00 | 0.22 | 0.00 | 92 | 1007.5 |
| 20260507022545 | 53 | 0 | 0.0 | 0.0 | 0.00 | 0.22 | 0.00 | 92 | 1007.5 |
| 20260507022043 | 53 | 0 | 0.0 | 0.0 | 0.00 | 0.22 | 0.00 | 92 | 1007.5 |
| 20260507021551 | 53 | 0 | 0.0 | 0.9 | 0.00 | 0.22 | 0.00 | 92 | 1007.5 |
| 20260507021042 | 53 | 0 | 0.0 | 1.7 | 0.00 | 0.22 | 0.00 | 93 | 1007.5 |
| 20260507020542 | 53 | 76 | 0.9 | 1.7 | 0.00 | 0.22 | 0.00 | 94 | 1007.5 |
| 20260507020107 | 53 | 0 | 0.0 | 0.9 | 0.00 | 0.22 | 0.00 | 94 | 1007.5 |
| 20260507015542 | 52 | 0 | 0.0 | 0.9 | 0.00 | 0.23 | 0.00 | 94 | 1007.4 |
| 20260507015042 | 52 | 0 | 0.0 | 0.0 | 0.00 | 0.23 | 0.00 | 94 | 1007.4 |
| 20260507014603 | 52 | 0 | 0.0 | 0.9 | 0.00 | 0.23 | 0.00 | 94 | 1007.4 |
| 20260507014041 | 52 | 0 | 0.0 | 0.9 | 0.00 | 0.23 | 0.00 | 94 | 1007.5 |
| 20260507013542 | 52 | 0 | 0.0 | 0.9 | 0.00 | 0.23 | 0.00 | 94 | 1007.6 |
| 20260507013052 | 52 | 0 | 0.0 | 0.9 | 0.00 | 0.23 | 0.00 | 94 | 1007.6 |
| 20260507012542 | 52 | 0 | 0.0 | 0.9 | 0.00 | 0.23 | 0.00 | 94 | 1007.6 |
| 20260507012044 | 52 | 0 | 0.0 | 0.9 | 0.00 | 0.23 | 0.00 | 94 | 1007.6 |
| 20260507011549 | 52 | 0 | 0.0 | 0.9 | 0.00 | 0.23 | 0.00 | 93 | 1007.4 |
| 20260507011042 | 52 | 0 | 0.0 | 0.9 | 0.00 | 0.23 | 0.00 | 93 | 1007.5 |
| 20260507010542 | 52 | 82 | 0.0 | 1.7 | 0.00 | 0.23 | 0.00 | 93 | 1007.5 |
| 20260507010050 | 52 | 0 | 0.0 | 1.7 | 0.00 | 0.23 | 0.00 | 92 | 1007.4 |
| 20260507005542 | 53 | 0 | 0.0 | 0.0 | 0.00 | 0.23 | 0.00 | 92 | 1007.5 |
| 20260507005043 | 53 | 0 | 0.0 | 0.0 | 0.00 | 0.23 | 0.00 | 91 | 1007.4 |
| 20260507004547 | 53 | 0 | 0.0 | 0.0 | 0.00 | 0.23 | 0.00 | 92 | 1007.4 |
| 20260507004042 | 53 | 0 | 0.0 | 0.9 | 0.00 | 0.23 | 0.00 | 93 | 1007.4 |
| 20260507003542 | 53 | 0 | 0.0 | 0.9 | 0.00 | 0.23 | 0.00 | 93 | 1007.4 |
| 20260507003049 | 52 | 67 | 0.0 | 0.9 | 0.00 | 0.23 | 0.00 | 94 | 1007.3 |
| 20260507002542 | 52 | 66 | 0.0 | 0.9 | 0.00 | 0.23 | 0.00 | 93 | 1007.3 |
| 20260507002045 | 52 | 67 | 0.0 | 0.9 | 0.00 | 0.23 | 0.00 | 93 | 1007.3 |
| 20260507001554 | 53 | 0 | 0.0 | 0.9 | 0.00 | 0.23 | 0.00 | 93 | 1007.2 |
| 20260507001041 | 53 | 88 | 0.0 | 0.9 | 0.00 | 0.23 | 0.00 | 93 | 1007.3 |
| 20260507000546 | 52 | 88 | 0.0 | 1.7 | 0.00 | 0.23 | 0.00 | 93 | 1007.2 |
| 20260507000055 | 52 | 0 | 0.0 | 1.7 | 0.00 | 0.23 | 0.00 | 93 | 1007.2 |
| 20260506235546 | 52 | 88 | 0.0 | 1.7 | 0.00 | 0.23 | 0.00 | 93 | 1007.2 |
| 20260506235044 | 52 | 0 | 0.0 | 0.9 | 0.00 | 0.23 | 0.00 | 93 | 1007.3 |
| 20260506234556 | 52 | 0 | 0.0 | 0.0 | 0.00 | 0.23 | 0.00 | 92 | 1007.2 |
| 20260506234042 | 52 | 0 | 0.0 | 1.7 | 0.00 | 0.23 | 0.00 | 91 | 1007.2 |
| 20260506233543 | 52 | 0 | 0.0 | 1.7 | 0.00 | 0.23 | 0.00 | 91 | 1007.3 |
| 20260506233054 | 53 | 96 | 0.9 | 1.7 | 0.00 | 0.23 | 0.00 | 89 | 1007.2 |
| 20260506232543 | 53 | 0 | 0.0 | 1.7 | 0.00 | 0.23 | 0.00 | 90 | 1007.3 |
| 20260506232042 | 53 | 93 | 0.0 | 4.3 | 0.00 | 0.23 | 0.00 | 90 | 1007.2 |
| 20260506231559 | 53 | 0 | 0.9 | 4.3 | 0.00 | 0.23 | 0.00 | 91 | 1007.2 |
| 20260506231042 | 53 | 59 | 1.7 | 2.6 | 0.00 | 0.23 | 0.00 | 92 | 1007.2 |
| 20260506230542 | 52 | 0 | 0.0 | 0.9 | 0.00 | 0.23 | 0.00 | 93 | 1007.2 |
| 20260506230058 | 53 | 0 | 0.0 | 1.7 | 0.00 | 0.23 | 0.00 | 93 | 1007.2 |
| 20260506225542 | 53 | 89 | 0.0 | 1.7 | 0.00 | 0.23 | 0.00 | 93 | 1007.3 |
| 20260506225042 | 53 | 90 | 0.9 | 1.7 | 0.00 | 0.23 | 0.00 | 93 | 1007.3 |
| 20260506224600 | 53 | 0 | 0.0 | 0.0 | 0.00 | 0.23 | 0.00 | 93 | 1007.3 |
| 20260506224041 | 53 | 0 | 0.0 | 0.9 | 0.00 | 0.23 | 0.00 | 93 | 1007.3 |
| 20260506223542 | 53 | 0 | 0.0 | 0.9 | 0.00 | 0.23 | 0.00 | 93 | 1007.2 |
| 20260506223059 | 53 | 0 | 0.0 | 0.9 | 0.00 | 0.23 | 0.00 | 92 | 1007.3 |
| 20260506222542 | 53 | 0 | 0.0 | 1.7 | 0.00 | 0.23 | 0.00 | 92 | 1007.2 |
| 20260506222043 | 53 | 0 | 0.0 | 1.7 | 0.00 | 0.23 | 0.00 | 91 | 1007.2 |
| 20260506221557 | 54 | 0 | 0.0 | 0.9 | 0.00 | 0.23 | 0.00 | 91 | 1007.2 |
| 20260506221042 | 54 | 0 | 0.0 | 0.9 | 0.00 | 0.23 | 0.00 | 90 | 1007.2 |
| 20260506220542 | 54 | 0 | 0.0 | 0.9 | 0.00 | 0.23 | 0.00 | 90 | 1007.3 |
| 20260506220057 | 55 | 85 | 0.0 | 3.5 | 0.00 | 0.23 | 0.00 | 89 | 1007.3 |
| 20260506215543 | 55 | 0 | 0.0 | 3.5 | 0.00 | 0.23 | 0.23 | 88 | 1007.3 |
| 20260506215042 | 55 | 91 | 0.9 | 2.6 | 0.00 | 0.23 | 0.23 | 89 | 1007.2 |
| 20260506214553 | 55 | 80 | 0.9 | 4.3 | 0.00 | 0.23 | 0.23 | 90 | 1007.3 |
| 20260506214042 | 54 | 33 | 1.7 | 4.3 | 0.00 | 0.23 | 0.23 | 91 | 1007.1 |
| 20260506213544 | 54 | 326 | 2.6 | 4.3 | 0.00 | 0.23 | 0.23 | 92 | 1007.1 |
| 20260506213113 | 54 | 42 | 0.9 | 1.7 | 0.00 | 0.23 | 0.23 | 92 | 1007.1 |
| 20260506212542 | 54 | 0 | 0.0 | 1.7 | 0.00 | 0.23 | 0.23 | 92 | 1007.0 |
| 20260506212042 | 54 | 0 | 0.0 | 2.6 | 0.00 | 0.23 | 0.23 | 92 | 1007.0 |
| 20260506211608 | 54 | 0 | 1.7 | 2.6 | 0.00 | 0.23 | 0.23 | 92 | 1006.9 |
| 20260506211042 | 54 | 0 | 0.0 | 0.9 | 0.00 | 0.23 | 0.23 | 93 | 1006.9 |
| 20260506210542 | 54 | 0 | 0.0 | 2.6 | 0.00 | 0.23 | 0.23 | 93 | 1006.9 |
| 20260506210050 | 53 | 75 | 0.0 | 2.6 | 0.00 | 0.23 | 0.23 | 93 | 1006.9 |
| 20260506205542 | 53 | 94 | 2.6 | 2.6 | 0.00 | 0.23 | 0.23 | 92 | 1006.8 |
| 20260506205042 | 54 | 95 | 0.0 | 3.5 | 0.00 | 0.23 | 0.23 | 92 | 1006.9 |
| 20260506204556 | 54 | 98 | 0.9 | 3.5 | 0.00 | 0.23 | 0.23 | 92 | 1006.9 |
| 20260506204043 | 54 | 105 | 1.7 | 2.6 | 0.00 | 0.23 | 0.23 | 92 | 1006.8 |
| 20260506203542 | 53 | 18 | 1.7 | 1.7 | 0.00 | 0.23 | 0.23 | 92 | 1006.7 |
| 20260506203052 | 53 | 52 | 0.0 | 1.7 | 0.00 | 0.23 | 0.23 | 92 | 1006.8 |
| 20260506202542 | 53 | 0 | 0.0 | 1.7 | 0.00 | 0.23 | 0.23 | 92 | 1006.8 |
| 20260506202045 | 53 | 10 | 0.9 | 2.6 | 0.00 | 0.23 | 0.23 | 92 | 1006.8 |
| 20260506201601 | 53 | 8 | 1.7 | 2.6 | 0.00 | 0.23 | 0.23 | 91 | 1006.7 |
| 20260506201042 | 53 | 70 | 0.0 | 0.9 | 0.00 | 0.23 | 0.23 | 91 | 1006.6 |
| 20260506200542 | 54 | 0 | 0.0 | 0.0 | 0.00 | 0.23 | 0.23 | 91 | 1006.4 |
| 20260506200058 | 54 | 0 | 0.0 | 2.6 | 0.00 | 0.23 | 0.23 | 91 | 1006.3 |
| 20260506195543 | 54 | 0 | 1.7 | 2.6 | 0.00 | 0.26 | 0.23 | 90 | 1006.1 |
| 20260506195042 | 54 | 93 | 0.0 | 2.6 | 0.00 | 0.26 | 0.23 | 89 | 1006.0 |
| 20260506194609 | 55 | 99 | 0.9 | 4.3 | 0.00 | 0.26 | 0.23 | 88 | 1005.9 |
| 20260506194045 | 55 | 95 | 1.7 | 4.3 | 0.00 | 0.26 | 0.23 | 88 | 1005.9 |
| 20260506193542 | 55 | 98 | 1.7 | 4.3 | 0.00 | 0.26 | 0.23 | 87 | 1005.8 |
| 20260506193053 | 55 | 89 | 2.6 | 4.3 | 0.00 | 0.26 | 0.23 | 87 | 1005.7 |
| 20260506192543 | 54 | 79 | 0.9 | 2.6 | 0.00 | 0.26 | 0.23 | 89 | 1005.7 |
| 20260506192042 | 54 | 63 | 0.0 | 0.9 | 0.00 | 0.26 | 0.23 | 90 | 1005.5 |
| 20260506191551 | 53 | 39 | 0.0 | 0.9 | 0.00 | 0.26 | 0.23 | 90 | 1005.5 |
| 20260506191044 | 54 | 0 | 0.0 | 0.9 | 0.00 | 0.26 | 0.23 | 90 | 1005.5 |
| 20260506190542 | 54 | 0 | 0.0 | 2.6 | 0.00 | 0.26 | 0.23 | 89 | 1005.5 |
| 20260506190054 | 54 | 10 | 0.9 | 2.6 | 0.00 | 0.26 | 0.23 | 88 | 1005.4 |
| 20260506185542 | 55 | 8 | 0.9 | 1.7 | 0.00 | 0.26 | 0.23 | 85 | 1005.4 |
| 20260506185045 | 55 | 0 | 0.0 | 3.5 | 0.00 | 0.26 | 0.23 | 85 | 1005.2 |
| 20260506184604 | 55 | 82 | 1.7 | 3.5 | 0.00 | 0.26 | 0.23 | 86 | 1005.2 |
| 20260506184042 | 55 | 88 | 1.7 | 5.2 | 0.00 | 0.26 | 0.23 | 86 | 1005.1 |
| 20260506183542 | 56 | 100 | 1.7 | 5.2 | 0.00 | 0.26 | 0.23 | 85 | 1005.2 |
| 20260506183104 | 56 | 89 | 2.6 | 5.2 | 0.00 | 0.26 | 0.23 | 85 | 1005.2 |
| 20260506182541 | 56 | 101 | 0.9 | 3.5 | 0.00 | 0.26 | 0.23 | 85 | 1005.3 |
| 20260506182044 | 56 | 96 | 2.6 | 3.5 | 0.00 | 0.26 | 0.23 | 86 | 1005.2 |
| 20260506181552 | 56 | 95 | 1.7 | 3.5 | 0.00 | 0.26 | 0.23 | 87 | 1005.1 |
| 20260506181042 | 56 | 91 | 0.9 | 2.6 | 0.00 | 0.26 | 0.23 | 87 | 1005.1 |
| 20260506180541 | 56 | 91 | 1.7 | 3.5 | 0.00 | 0.26 | 0.23 | 86 | 1005.0 |
| 20260506180058 | 57 | 96 | 1.7 | 3.5 | 0.00 | 0.26 | 0.23 | 85 | 1005.0 |
| 20260506175545 | 57 | 98 | 0.9 | 3.5 | 0.00 | 0.26 | 0.23 | 84 | 1005.0 |
| 20260506175042 | 57 | 87 | 0.9 | 3.5 | 0.00 | 0.26 | 0.23 | 84 | 1004.9 |
| 20260506174552 | 57 | 95 | 1.7 | 3.5 | 0.00 | 0.26 | 0.23 | 84 | 1004.8 |
| 20260506174041 | 57 | 93 | 1.7 | 3.5 | 0.00 | 0.26 | 0.23 | 84 | 1004.7 |
| 20260506173542 | 57 | 81 | 1.7 | 4.3 | 0.00 | 0.26 | 0.23 | 85 | 1004.6 |
| 20260506173053 | 58 | 92 | 1.7 | 4.3 | 0.00 | 0.26 | 0.23 | 86 | 1004.6 |
| 20260506172544 | 58 | 88 | 0.9 | 2.6 | 0.00 | 0.26 | 0.23 | 86 | 1004.5 |
| 20260506172044 | 59 | 94 | 1.7 | 2.6 | 0.00 | 0.26 | 0.23 | 85 | 1004.5 |
| 20260506171549 | 59 | 90 | 0.9 | 2.6 | 0.00 | 0.26 | 0.23 | 83 | 1004.5 |
| 20260506171044 | 60 | 0 | 0.0 | 3.5 | 0.00 | 0.26 | 0.23 | 83 | 1004.4 |
| 20260506170542 | 60 | 99 | 1.7 | 3.5 | 0.00 | 0.26 | 0.23 | 82 | 1004.2 |
| 20260506170107 | 60 | 100 | 0.9 | 3.5 | 0.00 | 0.26 | 0.23 | 83 | 1004.1 |
| 20260506165543 | 60 | 98 | 0.9 | 3.5 | 0.00 | 0.26 | 0.23 | 83 | 1004.2 |
| 20260506165046 | 60 | 0 | 0.9 | 4.3 | 0.00 | 0.26 | 0.23 | 84 | 1004.2 |
| 20260506164551 | 60 | 0 | 1.7 | 4.3 | 0.00 | 0.26 | 0.23 | 83 | 1004.2 |
| 20260506164041 | 60 | 100 | 1.7 | 4.3 | 0.00 | 0.26 | 0.23 | 81 | 1004.2 |
| 20260506163541 | 60 | 89 | 1.7 | 4.3 | 0.00 | 0.26 | 0.23 | 78 | 1004.0 |
| 20260506163102 | 60 | 84 | 0.9 | 5.2 | 0.00 | 0.26 | 0.23 | 78 | 1004.1 |
| 20260506162542 | 60 | 41 | 1.7 | 5.2 | 0.00 | 0.26 | 0.23 | 78 | 1004.1 |
| 20260506162044 | 60 | 84 | 2.6 | 4.3 | 0.00 | 0.26 | 0.23 | 79 | 1004.0 |
| 20260506161544 | 60 | 63 | 0.9 | 2.6 | 0.00 | 0.26 | 0.23 | 81 | 1004.0 |
| 20260506161043 | 60 | 66 | 0.9 | 2.6 | 0.00 | 0.26 | 0.23 | 81 | 1004.0 |
| 20260506160542 | 60 | 0 | 0.9 | 3.5 | 0.00 | 0.26 | 0.23 | 82 | 1004.0 |
| 20260506160050 | 60 | 43 | 1.7 | 3.5 | 0.00 | 0.26 | 0.23 | 82 | 1004.0 |
| 20260506155542 | 60 | 23 | 1.7 | 5.2 | 0.00 | 0.26 | 0.23 | 82 | 1004.0 |
| 20260506155044 | 59 | 37 | 2.6 | 5.2 | 0.00 | 0.26 | 0.23 | 83 | 1004.1 |
| 20260506154553 | 59 | 49 | 1.7 | 5.2 | 0.00 | 0.26 | 0.23 | 85 | 1004.2 |
| 20260506154042 | 59 | 65 | 0.0 | 5.2 | 0.00 | 0.26 | 0.23 | 84 | 1004.3 |
| 20260506153542 | 59 | 65 | 0.9 | 7.8 | 0.00 | 0.26 | 0.23 | 82 | 1004.3 |
| 20260506153051 | 59 | 86 | 3.5 | 7.8 | 0.00 | 0.26 | 0.23 | 82 | 1004.3 |
| 20260506152541 | 59 | 114 | 4.3 | 7.0 | 0.00 | 0.26 | 0.23 | 80 | 1004.3 |
| 20260506152042 | 59 | 96 | 4.3 | 7.8 | 0.00 | 0.26 | 0.23 | 80 | 1004.4 |
| 20260506151550 | 59 | 78 | 5.2 | 7.8 | 0.00 | 0.26 | 0.23 | 81 | 1004.4 |
| 20260506151046 | 59 | 91 | 1.7 | 4.3 | 0.00 | 0.26 | 0.23 | 82 | 1004.6 |
| 20260506150542 | 59 | 60 | 2.6 | 4.3 | 0.00 | 0.26 | 0.23 | 84 | 1004.6 |
| 20260506150048 | 59 | 66 | 2.6 | 3.5 | 0.00 | 0.26 | 0.23 | 83 | 1004.6 |
| 20260506145544 | 59 | 83 | 0.9 | 6.1 | 0.00 | 0.26 | 0.23 | 84 | 1004.6 |
| 20260506145047 | 59 | 33 | 1.7 | 6.1 | 0.00 | 0.26 | 0.23 | 82 | 1004.6 |
| 20260506144601 | 59 | 325 | 2.6 | 6.1 | 0.00 | 0.26 | 0.23 | 83 | 1004.7 |
| 20260506144042 | 59 | 285 | 1.7 | 7.8 | 0.00 | 0.26 | 0.23 | 84 | 1004.7 |
| 20260506143542 | 59 | 66 | 2.6 | 7.8 | 0.00 | 0.26 | 0.23 | 83 | 1004.7 |
| 20260506143049 | 58 | 350 | 4.3 | 14.8 | 0.00 | 0.26 | 0.23 | 82 | 1004.7 |
| 20260506142542 | 58 | 322 | 5.2 | 14.8 | 0.00 | 0.26 | 0.23 | 81 | 1004.9 |
| 20260506142041 | 58 | 304 | 4.3 | 8.7 | 0.01 | 0.26 | 0.23 | 83 | 1005.0 |
| 20260506141550 | 58 | 348 | 2.6 | 8.7 | 0.03 | 0.26 | 0.23 | 84 | 1005.0 |
| 20260506141042 | 58 | 295 | 5.2 | 14.8 | 0.04 | 0.26 | 0.23 | 84 | 1005.2 |
| 20260506140542 | 58 | 324 | 9.6 | 14.8 | 0.07 | 0.26 | 0.23 | 83 | 1005.2 |
| 20260506140049 | 58 | 270 | 7.8 | 13.9 | 0.10 | 0.26 | 0.23 | 86 | 1005.1 |
| 20260506135541 | 57 | 263 | 8.7 | 13.9 | 0.11 | 0.26 | 0.23 | 87 | 1005.0 |
| 20260506135041 | 57 | 266 | 7.8 | 11.3 | 0.11 | 0.26 | 0.23 | 88 | 1005.1 |
| 20260506134546 | 57 | 293 | 7.0 | 11.3 | 0.11 | 0.26 | 0.23 | 88 | 1005.2 |
| 20260506134042 | 56 | 278 | 7.0 | 9.6 | 0.11 | 0.26 | 0.23 | 90 | 1005.1 |
| 20260506133541 | 56 | 285 | 5.2 | 10.4 | 0.11 | 0.26 | 0.23 | 89 | 1005.2 |
| 20260506133045 | 56 | 278 | 7.0 | 11.3 | 0.11 | 0.25 | 0.22 | 88 | 1005.2 |
| 20260506132542 | 56 | 316 | 5.2 | 13.0 | 0.11 | 0.25 | 0.22 | 89 | 1005.2 |
| 20260506132046 | 57 | 314 | 5.2 | 13.0 | 0.10 | 0.25 | 0.22 | 89 | 1005.4 |
| 20260506131544 | 57 | 328 | 8.7 | 13.0 | 0.08 | 0.23 | 0.20 | 88 | 1005.3 |
| 20260506131045 | 57 | 46 | 2.6 | 9.6 | 0.07 | 0.22 | 0.18 | 89 | 1005.4 |
| 20260506130542 | 58 | 105 | 4.3 | 9.6 | 0.03 | 0.18 | 0.14 | 89 | 1005.0 |
| 20260506130058 | 58 | 106 | 5.2 | 7.8 | 0.01 | 0.16 | 0.13 | 88 | 1004.5 |
| 20260506125543 | 59 | 122 | 2.6 | 9.6 | 0.00 | 0.16 | 0.12 | 87 | 1004.4 |
| 20260506125041 | 59 | 51 | 4.3 | 9.6 | 0.00 | 0.15 | 0.11 | 86 | 1004.5 |
| 20260506124549 | 60 | 147 | 4.3 | 8.7 | 0.00 | 0.15 | 0.11 | 84 | 1004.6 |
| 20260506124042 | 61 | 134 | 2.6 | 7.0 | 0.00 | 0.15 | 0.11 | 84 | 1004.4 |
| 20260506123541 | 61 | 102 | 2.6 | 7.0 | 0.00 | 0.15 | 0.11 | 85 | 1004.4 |
| 20260506123049 | 61 | 121 | 5.2 | 7.0 | 0.00 | 0.15 | 0.11 | 83 | 1004.3 |
| 20260506122541 | 62 | 141 | 2.6 | 7.0 | 0.00 | 0.15 | 0.11 | 82 | 1004.3 |
| 20260506122041 | 62 | 129 | 3.5 | 7.0 | 0.00 | 0.15 | 0.11 | 82 | 1004.3 |
| 20260506121549 | 62 | 107 | 2.6 | 7.0 | 0.00 | 0.15 | 0.11 | 83 | 1004.4 |
| 20260506121041 | 62 | 113 | 2.6 | 5.2 | 0.00 | 0.15 | 0.11 | 84 | 1004.4 |
| 20260506120542 | 62 | 110 | 1.7 | 4.3 | 0.01 | 0.15 | 0.11 | 84 | 1004.6 |
| 20260506120052 | 61 | 97 | 1.7 | 4.3 | 0.02 | 0.15 | 0.11 | 83 | 1004.6 |
| 20260506115541 | 60 | 120 | 3.5 | 4.3 | 0.03 | 0.18 | 0.11 | 83 | 1004.6 |
| 20260506115041 | 60 | 101 | 0.9 | 5.2 | 0.03 | 0.18 | 0.11 | 86 | 1004.7 |
| 20260506114551 | 60 | 99 | 2.6 | 6.1 | 0.03 | 0.18 | 0.11 | 85 | 1004.9 |
| 20260506114042 | 59 | 97 | 1.7 | 6.1 | 0.03 | 0.18 | 0.11 | 89 | 1004.9 |
| 20260506113542 | 59 | 122 | 2.6 | 5.2 | 0.03 | 0.18 | 0.11 | 90 | 1005.0 |
| 20260506113048 | 58 | 100 | 2.6 | 5.2 | 0.03 | 0.18 | 0.11 | 91 | 1004.9 |
| 20260506112542 | 58 | 99 | 3.5 | 5.2 | 0.03 | 0.18 | 0.11 | 91 | 1005.1 |
| 20260506112041 | 58 | 104 | 1.7 | 4.3 | 0.03 | 0.18 | 0.11 | 91 | 1005.1 |
| 20260506111553 | 58 | 93 | 1.7 | 4.3 | 0.02 | 0.17 | 0.11 | 91 | 1005.3 |
| 20260506111041 | 58 | 101 | 0.9 | 4.3 | 0.02 | 0.17 | 0.11 | 91 | 1005.3 |
| 20260506110546 | 58 | 103 | 1.7 | 4.3 | 0.00 | 0.15 | 0.09 | 90 | 1005.4 |
| 20260506110052 | 58 | 131 | 1.7 | 7.8 | 0.00 | 0.15 | 0.09 | 89 | 1005.4 |
| 20260506105541 | 59 | 103 | 5.2 | 7.8 | 0.00 | 0.14 | 0.08 | 88 | 1005.3 |
| 20260506105041 | 59 | 126 | 4.3 | 7.0 | 0.00 | 0.14 | 0.08 | 87 | 1005.3 |
| 20260506104550 | 59 | 165 | 3.5 | 6.1 | 0.00 | 0.14 | 0.08 | 87 | 1005.2 |
| 20260506104041 | 60 | 117 | 2.6 | 6.1 | 0.00 | 0.14 | 0.08 | 87 | 1005.1 |
| 20260506103542 | 60 | 110 | 2.6 | 6.1 | 0.00 | 0.14 | 0.08 | 87 | 1005.2 |
| 20260506103112 | 60 | 105 | 2.6 | 6.1 | 0.00 | 0.14 | 0.08 | 87 | 1005.2 |
| 20260506102542 | 60 | 102 | 2.6 | 7.0 | 0.00 | 0.14 | 0.08 | 87 | 1005.3 |
| 20260506102041 | 60 | 91 | 2.6 | 7.0 | 0.00 | 0.14 | 0.08 | 86 | 1005.4 |
| 20260506101552 | 60 | 91 | 2.6 | 7.0 | 0.00 | 0.14 | 0.08 | 86 | 1005.4 |
| 20260506101041 | 60 | 76 | 0.0 | 1.7 | 0.00 | 0.14 | 0.08 | 83 | 1005.4 |
| 20260506100541 | 60 | 72 | 0.0 | 1.7 | 0.00 | 0.14 | 0.08 | 85 | 1005.3 |
| 20260506100053 | 59 | 72 | 0.0 | 2.6 | 0.00 | 0.14 | 0.08 | 84 | 1005.3 |
| 20260506095542 | 59 | 71 | 1.7 | 3.5 | 0.00 | 0.14 | 0.08 | 84 | 1005.3 |
| 20260506095042 | 59 | 68 | 1.7 | 3.5 | 0.00 | 0.14 | 0.08 | 85 | 1005.3 |
| 20260506094554 | 59 | 72 | 0.9 | 2.6 | 0.00 | 0.14 | 0.08 | 85 | 1005.4 |
| 20260506094041 | 59 | 60 | 0.0 | 1.7 | 0.00 | 0.14 | 0.08 | 85 | 1005.3 |
| 20260506093542 | 59 | 64 | 0.0 | 1.7 | 0.00 | 0.14 | 0.08 | 85 | 1005.4 |
| 20260506093055 | 59 | 68 | 0.0 | 2.6 | 0.00 | 0.14 | 0.08 | 85 | 1005.4 |
| 20260506092542 | 59 | 0 | 0.9 | 4.3 | 0.00 | 0.14 | 0.08 | 85 | 1005.5 |
| 20260506092041 | 59 | 65 | 0.9 | 5.2 | 0.00 | 0.14 | 0.08 | 88 | 1005.6 |
| 20260506091547 | 59 | 346 | 2.6 | 5.2 | 0.00 | 0.14 | 0.08 | 87 | 1005.8 |
| 20260506091042 | 59 | 15 | 3.5 | 5.2 | 0.00 | 0.14 | 0.08 | 87 | 1005.8 |
| 20260506090541 | 59 | 349 | 2.6 | 5.2 | 0.00 | 0.14 | 0.08 | 84 | 1005.6 |
| 20260506090058 | 59 | 25 | 0.9 | 6.1 | 0.00 | 0.14 | 0.08 | 86 | 1005.7 |
| 20260506085541 | 59 | 15 | 2.6 | 6.1 | 0.00 | 0.14 | 0.08 | 87 | 1005.7 |
| 20260506085042 | 59 | 309 | 1.7 | 6.1 | 0.00 | 0.14 | 0.08 | 87 | 1005.7 |
| 20260506084601 | 58 | 303 | 0.9 | 3.5 | 0.00 | 0.14 | 0.08 | 88 | 1005.9 |
| 20260506084042 | 58 | 44 | 1.7 | 3.5 | 0.00 | 0.14 | 0.08 | 88 | 1006.0 |
| 20260506083542 | 58 | 26 | 0.0 | 2.6 | 0.00 | 0.14 | 0.08 | 89 | 1005.9 |
| 20260506083051 | 58 | 35 | 0.9 | 1.7 | 0.00 | 0.14 | 0.08 | 89 | 1005.9 |
| 20260506082541 | 58 | 304 | 0.9 | 2.6 | 0.00 | 0.14 | 0.08 | 90 | 1005.8 |
| 20260506082041 | 58 | 0 | 0.9 | 2.6 | 0.00 | 0.14 | 0.08 | 90 | 1005.8 |
| 20260506081554 | 58 | 27 | 0.9 | 2.6 | 0.00 | 0.14 | 0.08 | 90 | 1005.9 |
| 20260506081041 | 58 | 324 | 0.9 | 2.6 | 0.00 | 0.14 | 0.08 | 90 | 1005.9 |
| 20260506080542 | 57 | 49 | 0.0 | 1.7 | 0.00 | 0.14 | 0.07 | 89 | 1005.9 |
| 20260506073058 | 57 | 0 | 0.0 | 0.0 | 0.00 | 0.14 | 0.07 | 90 | 1006.2 |
| 20260506072542 | 57 | 0 | 0.0 | 0.0 | 0.00 | 0.14 | 0.07 | 91 | 1006.2 |
| 20260506072042 | 57 | 0 | 0.0 | 0.0 | 0.00 | 0.14 | 0.07 | 91 | 1006.1 |